Regional Weather Roundup
Issued by NWS Grand Forks, ND

Home | Current Version | Previous Version | Text Only | Print | Product List | Glossary Off
Versions: 1 2 3 4 5 6 7 8 9 10 11 12 13 14 15 16 17 18 19 20 21 22 23 24 25 26 27 28 29 30 31 32 33 34 35 36 37 38 39 40 41 42 43 44 45 46 47 48 49 50

000
ASUS43 KFGF 200110
RWRFGF
PRAIRIE TO PINES  WEATHER ROUNDUP
NATIONAL WEATHER SERVICE EASTERN NORTH DAKOTA/GRAND FORKS ND
800 PM CDT THU OCT 19 2017

 **SATELLITE DATA USED TO AUGMENT SKY COVER AT AUTOMATED STATIONS**
 *****  WEATHER ACROSS EASTERN NORTH DAKOTA  *****

CITY           SKY/WX    TMP DP  RH WIND       PRES   REMARKS
GRAND FORKS    FAIR      60  41  49 S13       29.70F
GRAND FRKS AFB FAIR      62  40  44 SW8       29.70F
DEVILS LAKE    FAIR      56  41  57 SE8       29.70S
FARGO          FAIR      63  42  46 S9        29.76S
WAHPETON ARPT  NOT AVBL
$$

 ***** WEATHER ACROSS CENTRAL AND WESTERN NORTH DAKOTA  *****

CITY           SKY/WX    TMP DP  RH WIND       PRES   REMARKS
BISMARCK       FAIR      60  39  45 S10       29.70S
MINOT          FAIR      60  34  37 E3        29.64S
JAMESTOWN      FAIR      55  41  59 S9        29.73F
MINOT AFB      FAIR      55  32  41 S10       29.62S
GARRISON         N/A     60  35  39 E3        29.66F
WILLISTON      FAIR      56  34  43 E3        29.61F
DICKINSON      FAIR      61  31  32 S8        29.67S
HETTINGER      FAIR      61  25  25 SE6       29.72S
$$

 *****  OTHER AIRPORT OBSERVATIONS IN OUR AREA  *****

CITY           SKY/WX    TMP DP  RH WIND       PRES   REMARKS
WALHALLA       FAIR     N/A N/A N/A E7        29.67S
GRAFTON AIRPOR FAIR      50  37  62 S7        29.71F
VALLEY CITY AR   N/A     54  41  62 S8        29.76F
CANDO          FAIR      50  36  57 S7        29.70S
CAVALIER APRT  FAIR      59  39  47 S7        29.68S
GWINNER        CLEAR     50  43  76 CALM      29.77F
SHEYENNE NWR     N/A     52  42  69 S6        29.95S
ROLLA          FAIR      54  30  40 S10       29.68S
 ***** THE ABOVE OBSERVATIONS ARE NON NWS ARE NOT QUALITY
       CONTROLLED AND MAY MIS-REPORT RAIN FOR SNOW...
$$

  *****  WEATHER ACROSS NORTHERN MINNESOTA  *****

CITY           SKY/WX    TMP DP  RH WIND       PRES   REMARKS
FLAG ISLAND    FAIR      52  46  82 S7        29.72F
WARROAD        FAIR      57  41  54 S5        29.74F
ROSEAU         FAIR      54  39  58 S6        29.73S
HALLOCK        FAIR      57  36  44 S9        29.70S
THF RVR FALLS  FAIR      57  38  48 S7        29.76S
BAUDETTE       FAIR      57  39  51 S8        29.76F
WASKISH        FAIR      61  39  44 S3        29.80S
CROOKSTON      FAIR      61  39  44 S13       29.74F
STEPHEN NDAWN    N/A     61  37  41 S9          N/A
GREENBUSH NDAW   N/A     48  36  61 W2          N/A
$$
  *****  WEATHER ACROSS CENTRAL AND WEST MINNESOTA  *****

CITY           SKY/WX    TMP DP  RH WIND       PRES   REMARKS
FOSSTON        FAIR      59  37  44 SE8       29.78F
BEMIDJI        FAIR      57  38  48 S7        29.81F
PARK RAPIDS    FAIR      58  40  51 SE9       29.83F
ELBOW LAKE     FAIR      57  46  66 E9        29.83S
WADENA         FAIR      57  41  54 SE6       29.84F
DETROIT LAKES  FAIR      61  43  51 SE7       29.82F
MOORHEAD       FAIR      61  43  51 S7        29.79R
FERGUS FALLS   FAIR      61  46  59 SE8       29.82R
MORRIS MN      FAIR      61  46  59 S10       29.83R
STAPLES        FAIR      59  37  44 SE5       29.86S
$$
  *****  WEATHER ELSEWHERE ACROSS MINNESOTA  *****

CITY           SKY/WX    TMP DP  RH WIND       PRES   REMARKS
DULUTH         FAIR      58  36  43 S10       29.91S
INTRNTL FALLS  FAIR      57  35  43 VRB5      29.80S
ELY            FAIR      57  30  35 S6        29.89S
CLOQUET        FAIR      59  30  33 S5        29.91S
WHEATON        FAIR      66  45  45 S10       29.82S
BRAINERD       FAIR      58  38  47 S7        29.88S
HIBBING        FAIR      48  33  56 SE3       29.88S
ALEXANDRIA     FAIR      63  44  50 S13       29.86S
SAINT CLOUD    FAIR      57  40  52 SE9       29.90S
MINNEAPOLIS    FAIR      64  39  39 S10       29.94F
$$

  *****  WEATHER ACROSS SOUTH DAKOTA  *****

CITY           SKY/WX    TMP DP  RH WIND       PRES   REMARKS
SIOUX FALLS    FAIR      68  51  54 S15G23    29.89R
BROOKINGS      FAIR      63  49  60 S16       29.86S
WATERTOWN      FAIR      60  49  66 S6        29.83S
HURON          FAIR      67  45  45 S14       29.79F
SISSETON         N/A     63  48  58 S8        29.78S
ABERDEEN       FAIR      54  44  69 SE8       29.76F
MITCHELL       FAIR      67  49  52 S14       29.82S
PIERRE         FAIR      65  47  52 SE8       29.71S
MOBRIDGE       FAIR      64  42  44 E8        29.70F
RAPID CITY     FAIR      62  20  19 CALM      29.74F
$$

  *****  SOME WEATHER IN NEARBY STATES *****

CITY           SKY/WX    TMP DP  RH WIND       PRES   REMARKS
GLASGOW MT     FAIR      66  25  21 SE7       29.55S
GREAT FALLS MT FAIR      59  22  24 W8        29.52F
CHEYENNE WY    FAIR      57  33  40 W7        29.96S
SCOTTSBLUFF NE FAIR      58  30  34 E6        29.83S
OMAHA NE       FAIR      70  53  54 S12       29.97S
DES MOINES IA  FAIR      66  54  65 SE8       30.03S
DAVENPORT IA   FAIR      61  50  67 SE8       30.13R
CHICAGO IL     FAIR      57  30  35 SE7       30.16S
EAU CLAIRE WI  FAIR      58  35  42 S5        30.00S
LA CROSSE WI   FAIR      62  38  40 S5        30.03F
$$

  *****  SOME NATIONAL WEATHER *****

CITY           SKY/WX    TMP DP  RH WIND       PRES   REMARKS
LA GUARDIA NY  FAIR      67  45  45 SW8       30.08S
RALEIGH NC     FAIR      56  50  80 CALM      30.22S
ATLANTA GA     FAIR      65  42  43 CALM      30.25R
NEW ORLEANS LA MOCLDY    74  68  81 E13       30.14R
OKLAHOMA CITY  MOCLDY    65  48  54 S10       30.07R
ALBUQUERQUE NM CLOUDY    65  43  44 W20G31    30.07R
SALT LAKE CITY MOCLDY    62  38  40 W5        29.82F
LOS ANGELES CA FAIR      67  62  84 SW7       29.86F
BOISE ID       FAIR      68  11  11 S8        29.60F
SEATTLE WA     LGT RAIN  50  48  93 SE13      29.50F
$$

*** WEATHER ACROSS MANITOBA...SASKATCHEWAN AND ONTARIO ***
                ***ONTARIO***

CITY           SKY/WX    TMP DP  RH WIND       PRES   REMARKS
GERALDTON      PTCLDY    39  30  70 SW3       29.89R
THUNDER BAY    PTCLDY    45  36  70 N5        29.90F
SIOUX LOOKOUT  PTCLDY    46  30  53 SE6       29.80F
TORONTO        CLEAR     52  34  50 W8        30.08R
BIG TROUT LK   MOCLDY    36  36 100 N2        29.84S
PICKLE LAKE    MOCLDY    36  28  75 SE5       29.84S
DRYDEN         CLEAR     52  30  43 SE7       29.78S
KENORA         MOCLDY    54  34  47 S9        29.74S
$$
                *** MANITOBA***

CITY           SKY/WX    TMP DP  RH WIND       PRES   REMARKS
BRANDON        PTCLDY    54  36  50 S5        29.62F
DAUPHIN        CLEAR     63  36  36 SW10      29.56S
ISLAND LAKE    NOT AVBL
PILOT MOUND      N/A     52  34  50 S9          N/A
THE PAS        PTCLDY    39  32  75 SE9       29.57S
THOMPSON       CLOUDY    36  32  87 E8        29.72F
WINNIPEG       MOCLDY    57  37  47 S14       29.65F
LYNN LAKE      CLOUDY    32  32 100 SE12      29.65R WCI  23
CHURCHILL      CLOUDY    32  30  93 SE5       29.89R
GILLAM         CLOUDY    34  32  93 E5        29.81S
$$
                ***SASKATCHEWAN***

CITY           SKY/WX    TMP DP  RH WIND       PRES   REMARKS
ESTEVAN        PTCLDY    54  32  43 S10       29.59F
KINDERSLEY     CLOUDY    55  36  47 SW5       29.43S
LLOYDMINSTER   MOCLDY    50  36  57 E5        29.40F
PRINCE ALBERT  MOCLDY    45  34  65 E5        29.50S
REGINA         MOCLDY    59  27  29 SE6       29.52F
YORKTON        CLEAR     57  32  38 S6        29.54F
N. BATTLEFORD  PTCLDY    52  32  46 NE6       29.45F
LA RONGE       PTCLDY    39  34  81 E5        29.54R
SASKATOON      MOCLDY    57  39  51 S5        29.47S
SWIFT CURRENT  CLEAR     57  25  28 S12       29.49F
$$
NOTE: THESE ARE AUTOMATED STATIONS WITH LIMITED QUALITY CONTROL
      "FAIR" INDICATES FEW OR NO CLOUDS BELOW 12,000 FEET WITH NO
      SIGNIFICANT WEATHER AND/OR OBSTRUCTIONS TO VISIBILITY.
      SKY/WX - SKY CONDITION AND SIGNIFICANT WEATHER.
      TMP - AIR TEMPERATURE.    DP   - DEWPOINT TEMPERATURE.
      RH  - RELATIVE HUMIDITY.  PRES - PRESSURE.
      HX  - HEAT INDEX.         WCI  - WIND CHILL INDEX.
$



USA.gov is the U.S. government's official web portal to all federal, state and local government web resources and services.